Regional Weather Roundup
Issued by NWS

Home | Current Version | Previous Version | Text Only | Print | Product List | Glossary On
Versions: 1 2 3 4 5 6 7 8 9 10 11 12 13 14 15 16 17 18 19 20 21 22 23 24 25 26 27 28 29 30 31 32 33 34 35 36 37 38 39 40 41 42 43 44 45 46 47 48 49 50
000
ASUS46 KLOX 112313
RWRCA

SOUTHERN CALIFORNIA WEATHER ROUNDUP
NATIONAL WEATHER SERVICE OXNARD CALIFORNIA
300 PM PST THU FEB 11 2016

NOTE: "FAIR" INDICATES FEW OR NO CLOUDS BELOW 12,000 FEET WITH NO
SIGNIFICANT WEATHER AND/OR OBSTRUCTIONS TO VISIBILITY.

  -  STATIONS PRECEEDED BY AN ASTERISK (*) ARE NOT NWS OR FAA
     STATIONS AND ARE NOT SUBJECT TO NWS AND FAA QUALITY CONTROL.

CAZ041-042-087-120000-
LA AND ORANGE COUNTY COASTAL AREAS


CITY           SKY/WX    TMP DP  RH WIND       PRES   REMARKS
L.A. DOWNTOWN  SUNNY     82  41  23 VRB3      30.04S
L.A. AIRPORT   MOSUNNY   73  43  33 W13       30.06S
LONG BEACH     SUNNY     77  40  26 S7        30.05S

CITY           SKY/WX    TMP DP  RH WIND       PRES   REMARKS
FULLERTON      SUNNY     83  34  17 S6        30.03F
HAWTHORNE      SUNNY     79  40  24 W9        30.05F
*REDONDO BEACH   N/A     76  43  30 SW2       30.06S
SANTA ANA      MOSUNNY   81  30  15 W6        30.04F
STA MONICA APT SUNNY     74  41  30 SW8       30.06S
*UCLA            N/A     79  34  19 SW7       30.03S

$$

CAZ547-548-048-120000-
LA COUNTY VALLEYS AND INLAND EMPIRE


CITY           SKY/WX    TMP DP  RH WIND       PRES   REMARKS
BURBANK        SUNNY     87  24  10 CALM      30.05F
VAN NUYS       SUNNY     87  27  11 CALM      30.05F

CITY           SKY/WX    TMP DP  RH WIND       PRES   REMARKS
*CHATSWORTH      N/A     89  31  13 NW3       30.05F
CHINO          MOSUNNY   86  32  14 SW7       30.06F
*CLAREMONT       N/A     84  24  11 S5          N/A
MARCH AFB      SUNNY     84  13   7 E2        30.08F
ONTARIO        MOSUNNY   86  23  10 SW6       30.06F
*PASADENA        N/A     88  37  16 CALM        N/A
RIVERSIDE      SUNNY     87  24  10 W6        30.05F
SAN BERNARDINO SUNNY    N/A N/A N/A CALM      30.06
*SAN GABRIEL     N/A     86  28  12 S6        30.10F
*SAUGUS          N/A     87  26  11 N3          N/A
*WHITEMAN AP   NOT AVBL
*WHITTIER HILL   N/A     87  32  14 S6          N/A
*WOODLAND HILL   N/A     90  21   8 SW3         N/A

$$

CAZ054-055-120000-
LA AND SAN BERNARDINO COUNTY MOUNTAINS


CITY           SKY/WX    TMP DP  RH WIND       PRES   REMARKS
*ACTON           N/A     74  26  17 W12         N/A
*BIG BEAR AIRP CLEAR     61   9  12 NE5       30.34F
*BIG PINES       N/A     64  24  22 CALM        N/A
*CHILAO          N/A     72  23  16 S7          N/A
SANDBERG       SUNNY     70  25  18 NE9       30.26F
*WARM SPRINGS    N/A     77  58  51 E9          N/A

$$

CAZ028-029-059-060-099-120000-
ANTELOPE VALLEY AND SURROUNDING AREAS


CITY           SKY/WX    TMP DP  RH WIND       PRES   REMARKS
LANCASTER      SUNNY     74  24  15 CALM      30.18F
PALMDALE       SUNNY     71  24  17 NW5       30.19F
*POPPY PARK      N/A     74  33  22 E3          N/A

CITY           SKY/WX    TMP DP  RH WIND       PRES   REMARKS
29 PALMS       MOSUNNY   77  19  11 SE6       30.21F
BARSTOW/DAGGET SUNNY     75  21  13 NE6       30.16F
BISHOP         MOSUNNY   70  16  12 MISG      30.22F
CHINA LAKE     MOSUNNY   75  26  16 NW5       30.17F
MOJAVE         SUNNY     72  25  17 CALM      30.20S
NEEDLES        SUNNY     82  24  12 N13       30.11F
VICTORVILLE    SUNNY     73  19  13 CALM      30.19F

$$

CAZ039-040-120000-
VENTURA AND SANTA BARBARA COUNTY COAST


CITY           SKY/WX    TMP DP  RH WIND       PRES   REMARKS
CAMARILLO      SUNNY     79  36  21 SW8       30.06S
NWS OXNARD       N/A     78  37  22 W3        30.05S
OXNARD AIRPORT SUNNY     74  42  31 SW7       30.06S
*POINT MUGU    MOSUNNY   72  44  36 SW6       30.07F
SBA APT/GOLETA SUNNY     75  41  29 W7        30.06S
*SANTA BARBARA   N/A     83  29  14 E3        30.13S
*VENTURA         N/A     77  47  33 SW1       30.05R

$$

CAZ044-045-120000-
VENTURA COUNTY VALLEYS


CITY           SKY/WX    TMP DP  RH WIND       PRES   REMARKS
*SIMI VALLEY     N/A     82  36  19 W5        29.99R
*WESTLAKE VILL   N/A     85  44  23 SW3       30.06S
*OJAI            N/A     87  40  18 CALM      30.01S
*FILLMORE        N/A     85  46  25 SW8       29.93S

$$

CAZ053-120000-
VENTURA COUNTY MOUNTAINS


CITY           SKY/WX    TMP DP  RH WIND       PRES   REMARKS
*LOCKWOOD VLY    N/A     72  14  11 S6          N/A
*ROSE VALLEY     N/A     81  32  17 MISG        N/A

$$

CAZ034-035-036-120000-
CENTRAL COAST AND SANTA YNEZ VALLEY


CITY           SKY/WX    TMP DP  RH WIND       PRES   REMARKS
SAN LUIS OBISP MOSUNNY   70  55  59 NW14      30.09R
SANTA MARIA    MOSUNNY   73  53  49 NW14      30.10R

CITY           SKY/WX    TMP DP  RH WIND       PRES   REMARKS
*CAL POLY SLO    N/A     72  55  56 S5          N/A
*PISMO BEACH     N/A     61  57  86 SW3       30.10R
*SANTA YNEZ    FAIR      82  39  21 W10       30.08S

$$

CAZ037-038-051-120000-
SAN LUIS OBISPO COUNTY INTERIOR AND CUYAMA VALLEY


CITY           SKY/WX    TMP DP  RH WIND       PRES   REMARKS
*CUYAMA          N/A     78  36  21 W6        30.08F
PASO ROBLES    MOSUNNY   75  53  46 CALM      30.10F

$$

CAZ032-033-061-120000-
SOUTHERN DESERTS


CITY           SKY/WX    TMP DP  RH WIND       PRES   REMARKS
BLYTHE         SUNNY     83  32  16 MISG      30.08F
IMPERIAL       SUNNY     86  20   9 NE3       30.06F
PALM SPRINGS   SUNNY     85  23  10 VRB6      30.09F
THERMAL        SUNNY     85  22  10 S6        30.04F

$$

ELSEWHERE ACROSS THE WESTERN UNITED STATES AND MEXICO


CITY           SKY/WX    TMP DP  RH WIND       PRES   REMARKS
DEATH VALLEY,    N/A     79  29  16 CALM        N/A
DENVER, CO     PTSUNNY   54  27  35 SE10      30.14R
GRAND CANYON,  SUNNY     64  12  13 VRB6      30.36R
HONOLULU, HI   MOSUNNY   84  61  45 NE8G17    30.03F
KAHULUI, MAUI  MOSUNNY   82  61  47 NE18      30.04F
LAKE TAHOE, CA PTSUNNY   50  30  46 NE10      30.31R
LAS VEGAS, NV  MOSUNNY   73  19  13 VRB5      30.15F
MAMMOTH LAKES, FAIR      61  16  17 SE5       30.35S
MEXICO CITY, M SUNNY     70  23  17 NE9       30.26S
PHOENIX, AZ    MOSUNNY   84  25  11 NW5       30.07S
PORTLAND, OR   CLOUDY    54  46  74 SE10      30.13R
RENO, NV       CLOUDY    56  31  38 CALM      30.25F
SALT LAKE CITY PTSUNNY   33  27  78 N6        30.43S HAZE    WCI  28
SAN DIEGO, CA  SUNNY     81  25  12 W9        30.05S
SAN FRANCISCO, PTSUNNY   60  54  80 NE9       30.11F
SAN JOSE, CA   CLOUDY    70  49  47 NW8       30.11R
SEATTLE, WA    LGT RAIN  52  48  86 CALM      30.11S
TIJUANA, MEX   SUNNY     81  23  12 W9        30.08S

$$

STATION/POSITION TIME  TEMP    WIND        PRES    VSBY  WAVE
                       AIR SEA DIR/SP/G                  HT/PER
                 (UTC) (F)     (DEG/KT/KT) (MB)    (MI)  (FT/S)
POINT ARGUELLO B NOT AVBL
WEST SANTA BARBA 2250   59 60  310/ 10/ 12 1018.0S         6/24
POINT CONCEPTION NOT AVBL
EAST SANTA BARBA 2300   62 60  260/  6/  8 1018.6R
SANTA MONICA BAY 2250   63 63  330/  4/  4 1018.3F         4/13


USA.gov is the U.S. government's official web portal to all federal, state and local government web resources and services.